Find Starlink 5406

NORAD ID: 54860 Int'l Des: 2022-177 Owner: SPXS Country: US Constellation: starlink operational
LEOCIRCULAR

現在のビュー

3D地球を読み込み中...

About Starlink 5406

Starlink 5406 (NORAD 54860) is a starlink constellation satellite (v1.5) launched Dec 28, 2022 by SPXS of US. It operates in LEO, CIRCULAR orbit with a mass of 305.00 kg.

Starlink 5406について

説明を読み込み中...

次回通過

Passes for default location (London). Set your location on the main map for personalized predictions.

高度履歴

Loading altitude history...

軌道要素

1 54860U 22177AS 26195.50954421 -.00000492 00000-0 -83643-5 0 9991
2 54860 43.0033 125.5674 0000962 258.1472 101.9272 15.27574786196486
Epoch: Jul 14, 2026 • Age: 11 hours

現在のステータス

高度 486.1 km
遠地点 / 近地点 N/A
速度 7.63 km/s
衛星直下点 39.48°N, 101.14°W
打ち上げ日 Dec 28, 2022
運用期間 3.5 years
タイプ internet

技術仕様

分類 Payload
質量 305.00 kg
乾燥質量 290.00 kg
総質量 305.00 kg
長さ 0.20 m
直径 2.80 m
スパン 9.00 m
形状 Box + pan
製造者 SPXS
バスタイプ Starlink
フェーズステータス In Orbit
所有者/国 SPXS/US

Most Searched